Private Wetterstation Wechselburg
Wetterdaten: Mittwoch, 08.06.2016
Datum Zeit Temp. +2m Bodentemp. Temp.+5cm Temp. Wind Windchill X Diff Temp. Feuchte +2m Feuchte +5cm Sonnenschein Luftdruck Regen Wind Richtung Richtung Sonnenschein Taupunkt Windchill Windben
08.06.2016 00:00 12,1 C 23,6 C 13,6 C 12,0 C 11,7 C 0,0 C 81 % 85 % 0 % 1019,3 hPa 0,0 l/m 0,0 km/h (0 Bft) N 360 0 min 8,9 C 11,7 C 0,0 km/h (0 Bft)
08.06.2016 00:05 12,0 C 23,6 C 13,5 C 11,9 C 11,6 C 0,0 C 82 % 86 % 0 % 1019,2 hPa 0,0 l/m 0,0 km/h (0 Bft) O-NO 67 0 min 9,0 C 11,6 C 0,0 km/h (0 Bft)
08.06.2016 00:10 11,9 C 23,6 C 13,3 C 11,8 C 11,5 C 0,0 C 82 % 85 % 0 % 1019,2 hPa 0,0 l/m 0,0 km/h (0 Bft) O-NO 67 0 min 8,9 C 11,5 C 0,0 km/h (0 Bft)
08.06.2016 00:15 11,7 C 23,6 C 13,2 C 11,6 C 11,5 C 0,0 C 82 % 86 % 0 % 1019,2 hPa 0,0 l/m 0,0 km/h (0 Bft) N-NW 337 0 min 8,7 C 11,5 C 0,0 km/h (0 Bft)
08.06.2016 00:20 11,6 C 23,5 C 13,2 C 11,5 C 11,4 C 0,0 C 82 % 86 % 0 % 1019,2 hPa 0,0 l/m 0,0 km/h (0 Bft) N-NW 337 0 min 8,6 C 11,4 C 0,0 km/h (0 Bft)
08.06.2016 00:25 11,5 C 23,5 C 13,2 C 11,4 C 11,3 C 0,0 C 83 % 86 % 0 % 1019,1 hPa 0,0 l/m 0,0 km/h (0 Bft) N-NW 337 0 min 8,7 C 11,3 C 0,0 km/h (0 Bft)
08.06.2016 00:30 11,5 C 23,5 C 13,1 C 11,4 C 11,1 C 0,0 C 83 % 86 % 0 % 1019,1 hPa 0,0 l/m 0,0 km/h (0 Bft) W 270 0 min 8,7 C 11,1 C 0,0 km/h (0 Bft)
08.06.2016 00:35 11,3 C 23,5 C 13,1 C 11,2 C 10,9 C 0,0 C 83 % 86 % 0 % 1019,1 hPa 0,0 l/m 0,0 km/h (0 Bft) W 270 0 min 8,5 C 10,9 C 0,0 km/h (0 Bft)
08.06.2016 00:54 10,8 C 23,6 C 12,7 C 10,7 C 10,6 C 0,0 C 83 % 86 % 0 % 1019,8 hPa 0,0 l/m 0,0 km/h (0 Bft) N 0 0 min 8,0 C 10,6 C 0,0 km/h (0 Bft)
08.06.2016 01:04 10,8 C 23,6 C 12,6 C 10,8 C 10,7 C 0,0 C 84 % 87 % 0 % 1019,1 hPa 0,0 l/m 0,0 km/h (0 Bft) O-NO 67 0 min 8,2 C 10,7 C 0,0 km/h (0 Bft)
08.06.2016 01:05 10,8 C 23,6 C 12,6 C 10,8 C 10,7 C 0,0 C 84 % 87 % 0 % 1019,1 hPa 0,0 l/m 0,0 km/h (0 Bft) O-NO 67 0 min 8,2 C 10,7 C 0,0 km/h (0 Bft)
08.06.2016 01:06 10,8 C 23,6 C 12,6 C 10,8 C 10,7 C 0,0 C 84 % 87 % 0 % 1019,1 hPa 0,0 l/m 0,0 km/h (0 Bft) O-NO 67 0 min 8,2 C 10,7 C 0,0 km/h (0 Bft)
08.06.2016 01:07 10,8 C 23,6 C 12,6 C 10,8 C 10,7 C 0,0 C 84 % 87 % 0 % 1019,1 hPa 0,0 l/m 0,0 km/h (0 Bft) O-NO 67 0 min 8,2 C 10,7 C 0,0 km/h (0 Bft)
08.06.2016 01:08 10,7 C 23,6 C 12,5 C 10,7 C 10,6 C 0,0 C 84 % 87 % 0 % 1019,1 hPa 0,0 l/m 0,0 km/h (0 Bft) O-NO 67 0 min 8,1 C 10,6 C 0,0 km/h (0 Bft)
08.06.2016 01:11 10,7 C 23,6 C 12,5 C 10,7 C 10,6 C 0,0 C 84 % 87 % 0 % 1019,1 hPa 0,0 l/m 0,0 km/h (0 Bft) O-NO 67 0 min 8,1 C 10,6 C 0,0 km/h (0 Bft)
08.06.2016 01:21 10,5 C 23,5 C 12,4 C 10,6 C 10,6 C 0,1 C 84 % 87 % 0 % 1019,1 hPa 0,0 l/m 0,0 km/h (0 Bft) N 360 0 min 7,9 C 10,6 C 0,0 km/h (0 Bft)
08.06.2016 01:22 10,5 C 23,5 C 12,4 C 10,6 C 10,6 C 0,1 C 84 % 87 % 0 % 1019,1 hPa 0,0 l/m 0,0 km/h (0 Bft) N 360 0 min 7,9 C 10,6 C 0,0 km/h (0 Bft)
08.06.2016 01:23 10,5 C 23,5 C 12,4 C 10,5 C 10,5 C 0,0 C 84 % 87 % 0 % 1018,9 hPa 0,0 l/m 0,0 km/h (0 Bft) N 360 0 min 7,9 C 10,5 C 0,0 km/h (0 Bft)
08.06.2016 01:24 10,5 C 23,5 C 12,4 C 10,5 C 10,5 C 0,0 C 84 % 87 % 0 % 1018,9 hPa 0,0 l/m 0,0 km/h (0 Bft) N 360 0 min 7,9 C 10,5 C 0,0 km/h (0 Bft)
08.06.2016 01:25 10,5 C 23,5 C 12,4 C 10,5 C 10,5 C 0,0 C 84 % 87 % 0 % 1018,9 hPa 0,0 l/m 0,0 km/h (0 Bft) N 360 0 min 7,9 C 10,5 C 0,0 km/h (0 Bft)
08.06.2016 01:27 10,5 C 23,5 C 12,4 C 10,5 C 10,5 C 0,0 C 84 % 87 % 0 % 1018,9 hPa 0,0 l/m 0,0 km/h (0 Bft) N 360 0 min 7,9 C 10,5 C 0,0 km/h (0 Bft)
08.06.2016 01:38 10,3 C 23,6 C 12,2 C 10,3 C 10,3 C 0,0 C 84 % 87 % 0 % 1018,9 hPa 0,0 l/m 0,0 km/h (0 Bft) O-NO 67 0 min 7,7 C 10,3 C 0,0 km/h (0 Bft)
08.06.2016 01:39 10,3 C 23,6 C 12,2 C 10,3 C 10,3 C 0,0 C 84 % 87 % 0 % 1018,9 hPa 0,0 l/m 0,0 km/h (0 Bft) O-NO 67 0 min 7,7 C 10,3 C 0,0 km/h (0 Bft)
08.06.2016 01:40 10,3 C 23,6 C 12,2 C 10,3 C 10,3 C 0,0 C 84 % 87 % 0 % 1018,9 hPa 0,0 l/m 0,0 km/h (0 Bft) O-NO 67 0 min 7,7 C 10,3 C 0,0 km/h (0 Bft)
08.06.2016 01:41 10,3 C 23,6 C 12,2 C 10,3 C 10,3 C 0,0 C 84 % 87 % 0 % 1018,9 hPa 0,0 l/m 0,0 km/h (0 Bft) O-NO 67 0 min 7,7 C 10,3 C 0,0 km/h (0 Bft)
08.06.2016 01:42 10,3 C 23,6 C 12,2 C 10,3 C 10,3 C 0,0 C 84 % 87 % 0 % 1018,9 hPa 0,0 l/m 0,0 km/h (0 Bft) O-NO 67 0 min 7,7 C 10,3 C 0,0 km/h (0 Bft)
08.06.2016 01:44 10,3 C 23,6 C 12,1 C 10,5 C 10,5 C 0,2 C 85 % 87 % 0 % 1018,7 hPa 0,0 l/m 0,0 km/h (0 Bft) O-NO 67 0 min 7,9 C 10,5 C 0,0 km/h (0 Bft)
08.06.2016 01:55 10,3 C 23,5 C 12,0 C 10,5 C 10,5 C 0,2 C 85 % 87 % 0 % 1018,7 hPa 0,0 l/m 0,0 km/h (0 Bft) O-NO 67 0 min 7,9 C 10,5 C 0,0 km/h (0 Bft)
08.06.2016 01:56 10,3 C 23,5 C 12,0 C 10,5 C 10,5 C 0,2 C 85 % 87 % 0 % 1018,7 hPa 0,0 l/m 0,0 km/h (0 Bft) O-NO 67 0 min 7,9 C 10,5 C 0,0 km/h (0 Bft)
08.06.2016 01:57 10,3 C 23,5 C 12,0 C 10,5 C 10,5 C 0,2 C 85 % 87 % 0 % 1018,7 hPa 0,0 l/m 0,0 km/h (0 Bft) O-NO 67 0 min 7,9 C 10,5 C 0,0 km/h (0 Bft)
08.06.2016 01:58 10,2 C 23,5 C 12,0 C 10,5 C 10,5 C 0,3 C 85 % 87 % 0 % 1018,7 hPa 0,0 l/m 0,0 km/h (0 Bft) O-NO 67 0 min 7,8 C 10,5 C 0,0 km/h (0 Bft)
08.06.2016 01:59 10,2 C 23,5 C 12,0 C 10,5 C 10,5 C 0,3 C 85 % 87 % 0 % 1018,7 hPa 0,0 l/m 0,0 km/h (0 Bft) O-NO 67 0 min 7,8 C 10,5 C 0,0 km/h (0 Bft)
08.06.2016 02:01 10,2 C 23,5 C 12,0 C 10,5 C 10,5 C 0,3 C 85 % 87 % 0 % 1018,7 hPa 0,0 l/m 0,0 km/h (0 Bft) O-NO 67 0 min 7,8 C 10,5 C 0,0 km/h (0 Bft)
08.06.2016 02:12 10,1 C 23,5 C 12,0 C 10,3 C 10,3 C 0,2 C 85 % 88 % 0 % 1018,8 hPa 0,0 l/m 0,0 km/h (0 Bft) NW 315 0 min 7,7 C 10,3 C 0,0 km/h (0 Bft)
08.06.2016 02:13 10,1 C 23,4 C 11,8 C 10,1 C 10,1 C 0,0 C 85 % 87 % 0 % 1018,8 hPa 0,0 l/m 0,0 km/h (0 Bft) W 270 0 min 7,7 C 10,1 C 0,0 km/h (0 Bft)
08.06.2016 02:14 10,1 C 23,4 C 11,8 C 10,1 C 10,1 C 0,0 C 85 % 87 % 0 % 1018,8 hPa 0,0 l/m 0,0 km/h (0 Bft) W 270 0 min 7,7 C 10,1 C 0,0 km/h (0 Bft)
08.06.2016 02:15 10,1 C 23,4 C 11,8 C 10,1 C 10,1 C 0,0 C 85 % 87 % 0 % 1018,8 hPa 0,0 l/m 0,0 km/h (0 Bft) W 270 0 min 7,7 C 10,1 C 0,0 km/h (0 Bft)
08.06.2016 02:16 10,1 C 23,4 C 11,8 C 10,1 C 10,1 C 0,0 C 85 % 87 % 0 % 1018,8 hPa 0,0 l/m 0,0 km/h (0 Bft) W 270 0 min 7,7 C 10,1 C 0,0 km/h (0 Bft)
08.06.2016 02:17 10,0 C 23,5 C 11,9 C 10,0 C 10,0 C 0,0 C 85 % 88 % 0 % 1018,8 hPa 0,0 l/m 0,0 km/h (0 Bft) W 270 0 min 7,6 C 10,0 C 0,0 km/h (0 Bft)
08.06.2016 02:22 9,9 C 23,4 C 11,9 C 10,0 C 10,0 C 0,1 C 85 % 88 % 0 % 1018,6 hPa 0,0 l/m 0,0 km/h (0 Bft) W 270 0 min 7,5 C 10,0 C 0,0 km/h (0 Bft)
08.06.2016 02:27 9,9 C 23,4 C 11,8 C 10,0 C 10,0 C 0,1 C 85 % 88 % 0 % 1018,6 hPa 0,0 l/m 0,0 km/h (0 Bft) W 270 0 min 7,5 C 10,0 C 0,0 km/h (0 Bft)
08.06.2016 02:32 9,9 C 23,4 C 11,7 C 10,0 C 10,0 C 0,1 C 86 % 88 % 0 % 1018,6 hPa 0,0 l/m 0,0 km/h (0 Bft) W 270 0 min 7,7 C 10,0 C 0,0 km/h (0 Bft)
08.06.2016 02:37 9,8 C 23,3 C 11,7 C 10,0 C 10,0 C 0,2 C 86 % 88 % 0 % 1018,6 hPa 0,0 l/m 0,0 km/h (0 Bft) S-SW 202 0 min 7,6 C 10,0 C 0,0 km/h (0 Bft)
08.06.2016 02:42 9,7 C 23,4 C 11,6 C 9,9 C 9,9 C 0,2 C 86 % 88 % 0 % 1018,5 hPa 0,0 l/m 0,0 km/h (0 Bft) W-SW 247 0 min 7,5 C 9,9 C 0,0 km/h (0 Bft)
08.06.2016 02:47 9,6 C 23,4 C 11,6 C 9,9 C 9,9 C 0,3 C 86 % 88 % 0 % 1018,5 hPa 0,0 l/m 0,0 km/h (0 Bft) O 90 0 min 7,4 C 9,9 C 0,0 km/h (0 Bft)
08.06.2016 02:52 9,7 C 23,3 C 11,6 C 9,8 C 9,8 C 0,1 C 86 % 88 % 0 % 1018,5 hPa 0,0 l/m 0,0 km/h (0 Bft) W-SW 247 0 min 7,5 C 9,8 C 0,0 km/h (0 Bft)
08.06.2016 02:57 9,6 C 23,3 C 11,5 C 9,8 C 9,8 C 0,2 C 86 % 88 % 0 % 1018,5 hPa 0,0 l/m 0,0 km/h (0 Bft) W-NW 292 0 min 7,4 C 9,8 C 0,0 km/h (0 Bft)
08.06.2016 03:02 9,5 C 23,4 C 11,5 C 9,8 C 9,8 C 0,3 C 86 % 88 % 0 % 1018,4 hPa 0,0 l/m 0,0 km/h (0 Bft) O-SO 112 0 min 7,3 C 9,8 C 0,0 km/h (0 Bft)
08.06.2016 03:07 9,6 C 23,3 C 11,5 C 9,9 C 9,9 C 0,3 C 86 % 88 % 0 % 1018,4 hPa 0,0 l/m 0,0 km/h (0 Bft) O-SO 112 0 min 7,4 C 9,9 C 0,0 km/h (0 Bft)
08.06.2016 03:12 9,6 C 23,3 C 11,5 C 9,9 C 9,9 C 0,3 C 87 % 88 % 0 % 1018,4 hPa 0,0 l/m 0,0 km/h (0 Bft) NW 315 0 min 7,5 C 9,9 C 0,0 km/h (0 Bft)
08.06.2016 03:17 9,5 C 23,4 C 11,5 C 9,9 C 9,9 C 0,4 C 86 % 89 % 0 % 1018,4 hPa 0,0 l/m 0,0 km/h (0 Bft) N-NO 22 0 min 7,3 C 9,9 C 0,0 km/h (0 Bft)
08.06.2016 03:22 9,4 C 23,3 C 11,4 C 9,7 C 9,7 C 0,3 C 87 % 88 % 0 % 1018,2 hPa 0,0 l/m 0,0 km/h (0 Bft) NW 315 0 min 7,3 C 9,7 C 0,0 km/h (0 Bft)
08.06.2016 03:27 9,5 C 23,3 C 11,3 C 9,6 C 9,6 C 0,1 C 86 % 88 % 0 % 1018,2 hPa 0,0 l/m 0,0 km/h (0 Bft) NW 315 0 min 7,3 C 9,6 C 0,0 km/h (0 Bft)
08.06.2016 03:32 9,4 C 23,3 C 11,3 C 9,6 C 9,6 C 0,2 C 87 % 89 % 0 % 1018,2 hPa 0,0 l/m 0,0 km/h (0 Bft) O-NO 67 0 min 7,3 C 9,6 C 0,0 km/h (0 Bft)
08.06.2016 03:37 9,3 C 23,3 C 11,3 C 9,6 C 9,6 C 0,3 C 87 % 89 % 0 % 1018,2 hPa 0,0 l/m 0,0 km/h (0 Bft) NW 315 0 min 7,2 C 9,6 C 0,0 km/h (0 Bft)
08.06.2016 03:42 9,2 C 23,3 C 11,1 C 9,4 C 9,4 C 0,2 C 87 % 89 % 0 % 1017,9 hPa 0,0 l/m 0,0 km/h (0 Bft) NW 315 0 min 7,2 C 9,4 C 0,0 km/h (0 Bft)
08.06.2016 03:47 9,2 C 23,3 C 11,1 C 9,4 C 9,4 C 0,2 C 87 % 89 % 0 % 1017,9 hPa 0,0 l/m 0,0 km/h (0 Bft) NW 315 0 min 7,2 C 9,4 C 0,0 km/h (0 Bft)
08.06.2016 03:52 9,2 C 23,2 C 11,0 C 9,3 C 9,3 C 0,1 C 87 % 89 % 0 % 1017,9 hPa 0,0 l/m 0,0 km/h (0 Bft) W 270 0 min 7,2 C 9,3 C 0,0 km/h (0 Bft)
08.06.2016 03:57 9,1 C 23,2 C 10,9 C 9,2 C 9,2 C 0,1 C 87 % 89 % 0 % 1017,9 hPa 0,0 l/m 0,0 km/h (0 Bft) W 270 0 min 7,1 C 9,2 C 0,0 km/h (0 Bft)
08.06.2016 04:02 9,1 C 23,3 C 10,9 C 9,2 C 9,2 C 0,1 C 87 % 89 % 0 % 1018,2 hPa 0,0 l/m 0,0 km/h (0 Bft) NW 315 0 min 7,1 C 9,2 C 0,0 km/h (0 Bft)
08.06.2016 04:07 9,1 C 23,3 C 10,9 C 9,1 C 9,1 C 0,0 C 87 % 89 % 0 % 1018,2 hPa 0,0 l/m 0,0 km/h (0 Bft) NW 315 0 min 7,1 C 9,1 C 0,0 km/h (0 Bft)
08.06.2016 04:12 9,0 C 23,3 C 10,9 C 9,1 C 9,1 C 0,1 C 87 % 89 % 0 % 1018,2 hPa 0,0 l/m 0,0 km/h (0 Bft) NW 315 0 min 7,0 C 9,1 C 0,0 km/h (0 Bft)
08.06.2016 04:17 8,9 C 23,3 C 10,8 C 9,1 C 9,1 C 0,2 C 87 % 89 % 0 % 1018,2 hPa 0,0 l/m 0,0 km/h (0 Bft) NW 315 0 min 6,9 C 9,1 C 0,0 km/h (0 Bft)
08.06.2016 04:22 9,1 C 23,3 C 10,8 C 9,1 C 9,1 C 0,0 C 87 % 89 % 0 % 1018,1 hPa 0,0 l/m 0,0 km/h (0 Bft) O-NO 67 0 min 7,1 C 9,1 C 0,0 km/h (0 Bft)
08.06.2016 04:27 9,1 C 23,3 C 10,8 C 9,3 C 9,3 C 0,2 C 87 % 89 % 0 % 1018,1 hPa 0,0 l/m 0,0 km/h (0 Bft) O-NO 67 0 min 7,1 C 9,3 C 0,0 km/h (0 Bft)
08.06.2016 04:32 9,1 C 23,3 C 10,8 C 9,2 C 9,2 C 0,1 C 87 % 89 % 0 % 1018,1 hPa 0,0 l/m 0,0 km/h (0 Bft) NW 315 0 min 7,1 C 9,2 C 0,0 km/h (0 Bft)
08.06.2016 04:37 8,9 C 23,2 C 10,8 C 9,1 C 9,1 C 0,2 C 87 % 89 % 0 % 1018,1 hPa 0,0 l/m 0,0 km/h (0 Bft) W-SW 247 0 min 6,9 C 9,1 C 0,0 km/h (0 Bft)
08.06.2016 04:42 8,9 C 23,2 C 10,7 C 8,9 C 8,9 C 0,0 C 87 % 89 % 0 % 1018,1 hPa 0,0 l/m 0,0 km/h (0 Bft) W-SW 247 0 min 6,9 C 8,9 C 0,0 km/h (0 Bft)
08.06.2016 04:47 8,7 C 23,0 C 10,7 C 8,9 C 8,9 C 0,2 C 87 % 89 % 0 % 1018,1 hPa 0,0 l/m 0,0 km/h (0 Bft) W 270 0 min 6,7 C 8,9 C 0,0 km/h (0 Bft)
08.06.2016 04:52 8,7 C 23,1 C 10,7 C 8,8 C 8,8 C 0,1 C 87 % 89 % 0 % 1018,1 hPa 0,0 l/m 0,0 km/h (0 Bft) W 270 0 min 6,7 C 8,8 C 0,0 km/h (0 Bft)
08.06.2016 04:57 8,7 C 23,1 C 10,5 C 8,7 C 8,7 C 0,0 C 87 % 89 % 0 % 1018,1 hPa 0,0 l/m 0,0 km/h (0 Bft) W 270 0 min 6,7 C 8,7 C 0,0 km/h (0 Bft)
08.06.2016 05:02 8,7 C 23,1 C 10,4 C 8,7 C 8,7 C 0,0 C 87 % 89 % 0 % 1018,3 hPa 0,0 l/m 0,0 km/h (0 Bft) NW 315 0 min 6,7 C 8,7 C 0,0 km/h (0 Bft)
08.06.2016 05:07 8,7 C 23,1 C 10,5 C 8,8 C 8,8 C 0,1 C 87 % 89 % 0 % 1018,3 hPa 0,0 l/m 0,0 km/h (0 Bft) N-NO 22 0 min 6,7 C 8,8 C 0,0 km/h (0 Bft)
08.06.2016 05:12 8,7 C 23,1 C 10,5 C 8,9 C 8,9 C 0,2 C 88 % 89 % 5 % 1018,3 hPa 0,0 l/m 0,0 km/h (0 Bft) O-NO 67 0 min 6,8 C 8,9 C 0,0 km/h (0 Bft)
08.06.2016 05:17 8,7 C 23,1 C 10,7 C 8,9 C 8,9 C 0,2 C 88 % 89 % 5 % 1018,3 hPa 0,0 l/m 0,0 km/h (0 Bft) O-NO 67 0 min 6,8 C 8,9 C 0,0 km/h (0 Bft)
08.06.2016 05:22 8,6 C 23,1 C 10,5 C 8,9 C 8,9 C 0,3 C 88 % 89 % 8 % 1018,0 hPa 0,0 l/m 0,0 km/h (0 Bft) SW 225 0 min 6,7 C 8,9 C 0,0 km/h (0 Bft)
08.06.2016 05:27 8,6 C 23,1 C 10,5 C 8,8 C 8,8 C 0,2 C 88 % 89 % 5 % 1018,0 hPa 0,0 l/m 0,0 km/h (0 Bft) SW 225 0 min 6,7 C 8,8 C 0,0 km/h (0 Bft)
08.06.2016 05:32 8,5 C 23,0 C 10,4 C 8,8 C 8,8 C 0,3 C 88 % 89 % 8 % 1018,0 hPa 0,0 l/m 0,0 km/h (0 Bft) W-SW 247 0 min 6,6 C 8,8 C 0,0 km/h (0 Bft)
08.06.2016 05:37 8,5 C 23,1 C 10,4 C 8,8 C 8,8 C 0,3 C 88 % 89 % 8 % 1018,0 hPa 0,0 l/m 0,0 km/h (0 Bft) SW 225 0 min 6,6 C 8,8 C 0,0 km/h (0 Bft)
08.06.2016 05:42 8,5 C 23,1 C 10,5 C 8,9 C 8,9 C 0,4 C 88 % 89 % 11 % 1018,1 hPa 0,0 l/m 0,0 km/h (0 Bft) SW 225 0 min 6,6 C 8,9 C 0,0 km/h (0 Bft)
08.06.2016 05:47 8,5 C 23,1 C 10,5 C 9,0 C 9,0 C 0,5 C 88 % 89 % 13 % 1018,1 hPa 0,0 l/m 0,0 km/h (0 Bft) SW 225 0 min 6,6 C 9,0 C 0,0 km/h (0 Bft)
08.06.2016 05:52 8,7 C 23,1 C 10,6 C 9,1 C 9,1 C 0,4 C 88 % 89 % 11 % 1018,1 hPa 0,0 l/m 0,0 km/h (0 Bft) NO 45 0 min 6,8 C 9,1 C 0,0 km/h (0 Bft)
08.06.2016 05:57 8,7 C 23,1 C 10,7 C 9,3 C 9,3 C 0,6 C 89 % 89 % 16 % 1018,1 hPa 0,0 l/m 0,0 km/h (0 Bft) NW 315 0 min 7,0 C 9,3 C 0,0 km/h (0 Bft)
08.06.2016 06:02 8,8 C 23,0 C 10,7 C 9,4 C 9,4 C 0,6 C 89 % 89 % 16 % 1018,2 hPa 0,0 l/m 0,0 km/h (0 Bft) NW 315 0 min 7,1 C 9,4 C 0,0 km/h (0 Bft)
08.06.2016 06:07 8,9 C 23,0 C 10,8 C 9,5 C 9,5 C 0,6 C 89 % 89 % 16 % 1018,2 hPa 0,0 l/m 0,0 km/h (0 Bft) NW 315 0 min 7,2 C 9,5 C 0,0 km/h (0 Bft)
08.06.2016 06:12 8,8 C 23,0 C 10,7 C 9,6 C 9,6 C 0,8 C 89 % 89 % 21 % 1018,2 hPa 0,0 l/m 0,0 km/h (0 Bft) W-SW 247 0 min 7,1 C 9,6 C 0,0 km/h (0 Bft)
08.06.2016 06:17 8,9 C 23,0 C 10,8 C 9,6 C 9,6 C 0,7 C 89 % 89 % 18 % 1018,2 hPa 0,0 l/m 0,0 km/h (0 Bft) W-SW 247 0 min 7,2 C 9,6 C 0,0 km/h (0 Bft)
08.06.2016 06:22 8,9 C 23,0 C 10,8 C 9,8 C 9,8 C 0,9 C 89 % 89 % 24 % 1018,1 hPa 0,0 l/m 0,0 km/h (0 Bft) W-SW 247 0 min 7,2 C 9,8 C 0,0 km/h (0 Bft)
08.06.2016 06:27 9,1 C 23,0 C 10,9 C 9,9 C 9,9 C 0,8 C 89 % 89 % 21 % 1018,1 hPa 0,0 l/m 0,0 km/h (0 Bft) W-SW 247 0 min 7,4 C 9,9 C 0,0 km/h (0 Bft)
08.06.2016 06:32 9,1 C 22,9 C 11,1 C 10,1 C 10,1 C 1,0 C 89 % 89 % 26 % 1018,1 hPa 0,0 l/m 0,0 km/h (0 Bft) W-SW 247 0 min 7,4 C 10,1 C 0,0 km/h (0 Bft)
08.06.2016 06:37 9,2 C 22,9 C 11,2 C 10,4 C 10,4 C 1,2 C 90 % 89 % 32 % 1018,1 hPa 0,0 l/m 0,0 km/h (0 Bft) W-SW 247 0 min 7,6 C 10,4 C 0,0 km/h (0 Bft)
08.06.2016 06:42 9,5 C 22,9 C 11,5 C 10,9 C 10,9 C 1,4 C 90 % 89 % 37 % 1018,1 hPa 0,0 l/m 0,0 km/h (0 Bft) SW 225 0 min 7,9 C 10,9 C 0,0 km/h (0 Bft)
08.06.2016 06:47 9,6 C 22,9 C 11,7 C 11,2 C 11,2 C 1,6 C 90 % 90 % 42 % 1018,1 hPa 0,0 l/m 0,0 km/h (0 Bft) S-SW 202 0 min 8,0 C 11,2 C 0,0 km/h (0 Bft)
08.06.2016 06:52 9,8 C 22,9 C 12,0 C 11,4 C 11,4 C 1,6 C 90 % 90 % 42 % 1018,1 hPa 0,0 l/m 0,0 km/h (0 Bft) O-SO 112 0 min 8,2 C 11,4 C 0,0 km/h (0 Bft)
08.06.2016 06:57 10,0 C 22,9 C 12,0 C 11,9 C 11,9 C 1,9 C 91 % 90 % 50 % 1018,1 hPa 0,0 l/m 0,0 km/h (0 Bft) W-NW 292 0 min 8,6 C 11,9 C 0,0 km/h (0 Bft)
08.06.2016 07:02 10,3 C 22,8 C 12,3 C 12,9 C 12,9 C 2,6 C 91 % 89 % 68 % 1017,9 hPa 0,0 l/m 0,0 km/h (0 Bft) W-SW 247 0 min 8,9 C 12,9 C 0,0 km/h (0 Bft)
08.06.2016 07:07 10,6 C 22,8 C 12,6 C 14,8 C 14,8 C 4,2 C 91 % 89 % 100 % 1017,9 hPa 0,0 l/m 0,0 km/h (0 Bft) S 180 5 min 9,2 C 14,8 C 0,0 km/h (0 Bft)
08.06.2016 07:12 11,1 C 22,7 C 12,8 C 15,9 C 15,9 C 4,8 C 92 % 89 % 100 % 1017,9 hPa 0,0 l/m 0,0 km/h (0 Bft) W 270 5 min 9,8 C 15,9 C 0,0 km/h (0 Bft)
08.06.2016 07:17 11,2 C 22,7 C 12,9 C 16,7 C 16,7 C 5,5 C 92 % 89 % 100 % 1017,9 hPa 0,0 l/m 0,0 km/h (0 Bft) S-SW 202 5 min 9,9 C 16,7 C 0,0 km/h (0 Bft)
08.06.2016 07:22 11,5 C 22,7 C 13,1 C 18,0 C 18,0 C 6,5 C 92 % 88 % 100 % 1018,0 hPa 0,0 l/m 0,0 km/h (0 Bft) S-SW 202 5 min 10,2 C 18,0 C 0,0 km/h (0 Bft)
08.06.2016 07:27 11,9 C 22,6 C 13,3 C 19,2 C 19,2 C 7,3 C 92 % 88 % 100 % 1018,0 hPa 0,0 l/m 0,0 km/h (0 Bft) W-SW 247 5 min 10,6 C 19,2 C 0,0 km/h (0 Bft)
08.06.2016 07:32 12,4 C 22,6 C 13,3 C 21,1 C 21,1 C 8,7 C 92 % 88 % 100 % 1018,0 hPa 0,0 l/m 0,0 km/h (0 Bft) W 270 5 min 11,1 C 21,1 C 0,0 km/h (0 Bft)
08.06.2016 07:37 12,8 C 22,6 C 13,5 C 22,2 C 22,2 C 9,4 C 92 % 88 % 100 % 1018,0 hPa 0,0 l/m 0,0 km/h (0 Bft) NW 315 5 min 11,5 C 22,2 C 0,0 km/h (0 Bft)
08.06.2016 07:42 13,5 C 22,5 C 13,7 C 24,2 C 24,2 C 10,7 C 92 % 88 % 100 % 1018,0 hPa 0,0 l/m 0,0 km/h (0 Bft) NW 315 5 min 12,2 C 24,2 C 0,0 km/h (0 Bft)
08.06.2016 07:47 13,9 C 22,5 C 13,9 C 25,0 C 25,0 C 11,1 C 92 % 88 % 100 % 1018,0 hPa 0,0 l/m 0,0 km/h (0 Bft) S-SW 202 5 min 12,6 C 25,0 C 0,0 km/h (0 Bft)
08.06.2016 07:52 14,4 C 22,5 C 14,1 C 26,3 C 26,3 C 11,9 C 91 % 88 % 100 % 1018,0 hPa 0,0 l/m 0,0 km/h (0 Bft) W-SW 247 5 min 12,9 C 26,3 C 0,0 km/h (0 Bft)
08.06.2016 07:57 14,7 C 22,5 C 14,3 C 26,9 C 26,9 C 12,2 C 91 % 88 % 100 % 1018,0 hPa 0,0 l/m 0,0 km/h (0 Bft) S 180 5 min 13,2 C 26,9 C 0,0 km/h (0 Bft)
08.06.2016 08:02 15,3 C 22,5 C 14,3 C 27,6 C 27,6 C 12,3 C 90 % 88 % 100 % 1018,1 hPa 0,0 l/m 0,0 km/h (0 Bft) S 180 5 min 13,7 C 27,6 C 0,0 km/h (0 Bft)
08.06.2016 08:07 15,5 C 22,5 C 14,5 C 28,1 C 28,1 C 12,6 C 89 % 87 % 100 % 1018,1 hPa 0,0 l/m 0,0 km/h (0 Bft) SW 225 5 min 13,7 C 28,1 C 0,0 km/h (0 Bft)
08.06.2016 08:12 16,1 C 22,5 C 14,7 C 28,6 C 28,6 C 12,5 C 88 % 87 % 100 % 1018,1 hPa 0,0 l/m 0,0 km/h (0 Bft) SW 225 5 min 14,1 C 28,6 C 0,0 km/h (0 Bft)
08.06.2016 08:17 16,4 C 22,5 C 14,9 C 29,0 C 29,0 C 12,6 C 87 % 87 % 100 % 1018,1 hPa 0,0 l/m 0,0 km/h (0 Bft) S 180 5 min 14,2 C 29,0 C 0,0 km/h (0 Bft)
08.06.2016 08:22 16,7 C 22,5 C 15,2 C 28,7 C 28,7 C 12,0 C 84 % 87 % 100 % 1017,6 hPa 0,0 l/m 0,3 km/h (0 Bft) S 180 5 min 14,0 C 28,7 C 1,8 km/h (1 Bft)
08.06.2016 08:27 16,9 C 22,4 C 15,4 C 28,6 C 28,6 C 11,7 C 82 % 87 % 100 % 1017,6 hPa 0,0 l/m 0,3 km/h (0 Bft) W-SW 247 5 min 13,8 C 28,6 C 0,0 km/h (0 Bft)
08.06.2016 08:32 17,7 C 22,4 C 15,5 C 29,0 C 29,0 C 11,3 C 80 % 86 % 100 % 1017,6 hPa 0,0 l/m 0,3 km/h (0 Bft) W-SW 247 5 min 14,2 C 29,0 C 0,0 km/h (0 Bft)
08.06.2016 08:37 18,0 C 22,4 C 15,7 C 29,5 C 29,5 C 11,5 C 79 % 86 % 100 % 1017,6 hPa 0,0 l/m 0,3 km/h (0 Bft) S-SW 202 5 min 14,3 C 29,5 C 0,0 km/h (0 Bft)
08.06.2016 08:42 18,9 C 22,4 C 15,8 C 29,8 C 29,8 C 10,9 C 77 % 86 % 100 % 1017,8 hPa 0,0 l/m 0,3 km/h (0 Bft) S 180 5 min 14,8 C 29,8 C 0,0 km/h (0 Bft)
08.06.2016 08:47 19,3 C 22,4 C 16,1 C 30,2 C 30,2 C 10,9 C 76 % 86 % 100 % 1017,8 hPa 0,0 l/m 0,5 km/h (0 Bft) W 270 5 min 15,0 C 30,2 C 0,0 km/h (0 Bft)
08.06.2016 08:52 20,0 C 22,4 C 16,2 C 30,4 C 30,4 C 10,4 C 74 % 86 % 100 % 1017,8 hPa 0,0 l/m 0,3 km/h (0 Bft) SW 225 5 min 15,2 C 30,4 C 0,0 km/h (0 Bft)
08.06.2016 08:57 20,4 C 22,4 C 16,5 C 30,3 C 30,3 C 9,9 C 73 % 85 % 100 % 1017,8 hPa 0,0 l/m 0,5 km/h (0 Bft) S-SW 202 5 min 15,4 C 30,3 C 0,0 km/h (0 Bft)
08.06.2016 09:02 21,3 C 22,4 C 16,7 C 31,2 C 31,2 C 9,9 C 71 % 85 % 100 % 1017,4 hPa 0,0 l/m 0,2 km/h (0 Bft) N 360 5 min 15,8 C 31,2 C 0,0 km/h (0 Bft)
08.06.2016 09:07 21,8 C 22,4 C 16,8 C 31,7 C 31,7 C 9,9 C 70 % 85 % 100 % 1017,4 hPa 0,0 l/m 0,2 km/h (0 Bft) SO 135 5 min 16,1 C 31,7 C 0,0 km/h (0 Bft)
08.06.2016 09:12 22,1 C 22,4 C 17,1 C 32,5 C 32,5 C 10,4 C 65 % 84 % 100 % 1017,4 hPa 0,0 l/m 0,3 km/h (0 Bft) SW 225 5 min 15,2 C 32,5 C 2,7 km/h (1 Bft)
08.06.2016 09:17 22,0 C 22,4 C 17,2 C 32,6 C 32,6 C 10,6 C 64 % 83 % 100 % 1017,4 hPa 0,0 l/m 0,5 km/h (0 Bft) S 180 5 min 14,9 C 32,6 C 1,9 km/h (1 Bft)
08.06.2016 09:22 22,0 C 22,3 C 17,6 C 32,1 C 32,1 C 10,1 C 62 % 82 % 100 % 1017,1 hPa 0,0 l/m 0,8 km/h (0 Bft) N-NW 337 5 min 14,4 C 32,1 C 3,1 km/h (1 Bft)
08.06.2016 09:27 22,0 C 22,3 C 18,1 C 31,8 C 31,8 C 9,8 C 62 % 81 % 100 % 1017,1 hPa 0,0 l/m 0,6 km/h (0 Bft) SW 225 5 min 14,4 C 31,8 C 0,0 km/h (0 Bft)
08.06.2016 09:32 22,0 C 22,3 C 18,3 C 32,2 C 32,2 C 10,2 C 61 % 79 % 100 % 1017,1 hPa 0,0 l/m 0,8 km/h (0 Bft) NO 45 5 min 14,1 C 32,2 C 0,0 km/h (0 Bft)
08.06.2016 09:37 22,2 C 22,3 C 18,7 C 32,4 C 32,4 C 10,2 C 60 % 78 % 100 % 1017,1 hPa 0,0 l/m 0,8 km/h (0 Bft) W 270 5 min 14,1 C 32,4 C 0,0 km/h (0 Bft)
08.06.2016 09:42 22,3 C 22,3 C 18,7 C 31,5 C 31,5 C 9,2 C 60 % 77 % 100 % 1017,4 hPa 0,0 l/m 0,3 km/h (0 Bft) W-SW 247 5 min 14,2 C 31,5 C 0,0 km/h (0 Bft)
08.06.2016 09:47 22,3 C 22,3 C 18,8 C 30,8 C 30,8 C 8,5 C 60 % 76 % 100 % 1017,4 hPa 0,0 l/m 0,0 km/h (0 Bft) W-NW 292 5 min 14,2 C 30,8 C 2,3 km/h (1 Bft)
08.06.2016 09:52 22,3 C 22,3 C 18,9 C 28,8 C 28,8 C 6,5 C 60 % 76 % 100 % 1017,4 hPa 0,0 l/m 0,8 km/h (0 Bft) SW 225 5 min 14,2 C 28,8 C 2,9 km/h (1 Bft)
08.06.2016 09:57 22,3 C 22,3 C 18,9 C 28,0 C 28,0 C 5,7 C 59 % 75 % 100 % 1017,4 hPa 0,0 l/m 1,3 km/h (1 Bft) S 180 5 min 13,9 C 28,0 C 1,8 km/h (1 Bft)
08.06.2016 10:02 22,1 C 22,3 C 19,0 C 27,4 C 27,4 C 5,3 C 60 % 75 % 100 % 1017,3 hPa 0,0 l/m 1,3 km/h (1 Bft) N 360 5 min 14,0 C 27,4 C 3,9 km/h (1 Bft)
08.06.2016 10:07 22,0 C 22,3 C 19,0 C 27,8 C 27,8 C 5,8 C 60 % 75 % 100 % 1017,3 hPa 0,0 l/m 1,6 km/h (1 Bft) SW 225 5 min 13,9 C 27,8 C 2,3 km/h (1 Bft)
08.06.2016 10:12 22,0 C 22,4 C 19,2 C 29,4 C 29,4 C 7,4 C 61 % 74 % 100 % 1017,3 hPa 0,0 l/m 2,1 km/h (1 Bft) W-SW 247 5 min 14,1 C 29,4 C 0,0 km/h (0 Bft)
08.06.2016 10:17 22,1 C 22,4 C 19,3 C 30,2 C 30,2 C 8,1 C 60 % 74 % 100 % 1017,3 hPa 0,0 l/m 1,3 km/h (1 Bft) N-NW 337 5 min 14,0 C 30,2 C 0,0 km/h (0 Bft)
08.06.2016 10:28 22,1 C 22,3 C 19,5 C 30,8 C 30,8 C 8,7 C 59 % 72 % 100 % 1017,3 hPa 0,0 l/m 1,3 km/h (1 Bft) S 180 11 min 13,7 C 30,8 C 2,9 km/h (1 Bft)
08.06.2016 10:35 22,3 C 22,3 C 19,6 C 30,4 C 30,4 C 8,1 C 58 % 71 % 100 % 1017,3 hPa 0,0 l/m 1,6 km/h (1 Bft) SO 135 7 min 13,6 C 30,4 C 0,0 km/h (0 Bft)
08.06.2016 10:40 22,3 C 22,3 C 19,7 C 30,4 C 30,4 C 8,1 C 58 % 70 % 100 % 1017,3 hPa 0,0 l/m 2,1 km/h (1 Bft) S 180 5 min 13,6 C 30,4 C 5,5 km/h (1 Bft)
08.06.2016 10:45 22,5 C 22,3 C 19,7 C 30,6 C 30,6 C 8,1 C 58 % 71 % 100 % 1017,3 hPa 0,0 l/m 1,8 km/h (1 Bft) W 270 5 min 13,8 C 30,6 C 3,9 km/h (1 Bft)
08.06.2016 10:55 22,7 C 22,3 C 19,9 C 31,2 C 31,2 C 8,5 C 59 % 71 % 100 % 1017,3 hPa 0,0 l/m 1,3 km/h (1 Bft) SO 135 10 min 14,3 C 31,2 C 4,5 km/h (1 Bft)
08.06.2016 11:00 22,7 C 22,4 C 20,0 C 31,2 C 31,2 C 8,5 C 59 % 71 % 100 % 1017,3 hPa 0,0 l/m 1,0 km/h (0 Bft) W-NW 292 5 min 14,3 C 31,2 C 2,7 km/h (1 Bft)
08.06.2016 11:05 22,8 C 22,4 C 20,0 C 31,2 C 31,2 C 8,4 C 59 % 71 % 100 % 1017,1 hPa 0,0 l/m 1,4 km/h (1 Bft) SW 225 5 min 14,4 C 31,2 C 3,4 km/h (1 Bft)
08.06.2016 11:10 22,9 C 22,4 C 20,1 C 31,2 C 31,2 C 8,3 C 58 % 71 % 100 % 1017,1 hPa 0,0 l/m 1,6 km/h (1 Bft) W-SW 247 5 min 14,2 C 31,2 C 3,4 km/h (1 Bft)
08.06.2016 11:15 23,1 C 22,4 C 20,3 C 30,8 C 30,8 C 7,7 C 58 % 70 % 100 % 1017,1 hPa 0,0 l/m 2,3 km/h (1 Bft) N-NW 337 5 min 14,4 C 30,8 C 3,9 km/h (1 Bft)
08.06.2016 11:20 23,1 C 22,4 C 20,4 C 30,6 C 30,6 C 7,5 C 58 % 70 % 100 % 1017,1 hPa 0,0 l/m 2,6 km/h (1 Bft) NW 315 5 min 14,4 C 30,6 C 3,1 km/h (1 Bft)
08.06.2016 11:25 23,0 C 22,5 C 20,6 C 30,7 C 30,7 C 7,7 C 57 % 70 % 100 % 1017,2 hPa 0,0 l/m 2,4 km/h (1 Bft) SO 135 5 min 14,0 C 30,7 C 3,7 km/h (1 Bft)
08.06.2016 11:30 23,1 C 22,5 C 20,6 C 30,6 C 30,6 C 7,5 C 57 % 69 % 100 % 1017,2 hPa 0,0 l/m 2,1 km/h (1 Bft) W-SW 247 5 min 14,1 C 30,6 C 0,0 km/h (0 Bft)
08.06.2016 11:35 23,3 C 22,5 C 20,8 C 31,0 C 31,0 C 7,7 C 57 % 70 % 100 % 1017,2 hPa 0,0 l/m 1,8 km/h (1 Bft) O-NO 67 5 min 14,3 C 31,0 C 2,9 km/h (1 Bft)
08.06.2016 11:40 23,3 C 22,5 C 20,8 C 31,1 C 31,1 C 7,8 C 55 % 69 % 100 % 1017,2 hPa 0,0 l/m 1,8 km/h (1 Bft) S-SO 157 5 min 13,7 C 31,1 C 2,9 km/h (1 Bft)
08.06.2016 11:45 23,2 C 22,5 C 21,0 C 30,9 C 30,9 C 7,7 C 55 % 67 % 100 % 1017,1 hPa 0,0 l/m 2,1 km/h (1 Bft) SO 135 5 min 13,6 C 30,9 C 3,4 km/h (1 Bft)
08.06.2016 11:50 23,3 C 22,5 C 21,1 C 30,7 C 30,7 C 7,4 C 55 % 67 % 100 % 1017,1 hPa 0,0 l/m 2,1 km/h (1 Bft) SW 225 5 min 13,7 C 30,7 C 5,0 km/h (1 Bft)
08.06.2016 11:55 23,5 C 22,5 C 21,3 C 30,7 C 30,7 C 7,2 C 55 % 66 % 100 % 1017,1 hPa 0,0 l/m 2,3 km/h (1 Bft) S 180 5 min 13,9 C 30,7 C 4,7 km/h (1 Bft)
08.06.2016 12:00 23,7 C 22,5 C 21,4 C 30,6 C 30,6 C 6,9 C 55 % 66 % 100 % 1017,1 hPa 0,0 l/m 2,7 km/h (1 Bft) W-SW 247 5 min 14,1 C 30,6 C 2,7 km/h (1 Bft)
08.06.2016 12:05 23,8 C 22,5 C 21,5 C 30,8 C 30,8 C 7,0 C 55 % 66 % 100 % 1016,6 hPa 0,0 l/m 2,3 km/h (1 Bft) S 180 5 min 14,2 C 30,8 C 11,1 km/h (2 Bft)
08.06.2016 12:10 24,0 C 22,5 C 21,6 C 30,8 C 30,8 C 6,8 C 54 % 65 % 100 % 1016,6 hPa 0,0 l/m 1,9 km/h (1 Bft) S-SO 157 5 min 14,1 C 30,8 C 4,5 km/h (1 Bft)
08.06.2016 12:15 24,5 C 22,5 C 21,8 C 30,9 C 30,9 C 6,4 C 54 % 65 % 100 % 1016,6 hPa 0,0 l/m 2,4 km/h (1 Bft) S-SW 202 5 min 14,6 C 30,9 C 4,3 km/h (1 Bft)
08.06.2016 12:20 24,6 C 22,5 C 21,8 C 31,0 C 31,0 C 6,4 C 54 % 65 % 100 % 1016,6 hPa 0,0 l/m 1,9 km/h (1 Bft) S 180 5 min 14,7 C 31,0 C 5,6 km/h (1 Bft)
08.06.2016 12:25 25,1 C 22,5 C 22,0 C 31,1 C 31,1 C 6,0 C 51 % 65 % 100 % 1016,8 hPa 0,0 l/m 1,8 km/h (1 Bft) W-SW 247 5 min 14,2 C 31,1 C 5,0 km/h (1 Bft)
08.06.2016 12:30 25,3 C 22,5 C 22,2 C 30,9 C 30,9 C 5,6 C 51 % 61 % 100 % 1016,8 hPa 0,0 l/m 2,3 km/h (1 Bft) N-NO 22 5 min 14,4 C 30,9 C 1,9 km/h (1 Bft)
08.06.2016 12:35 25,5 C 22,6 C 22,2 C 31,1 C 31,1 C 5,6 C 47 % 59 % 100 % 1016,8 hPa 0,0 l/m 2,1 km/h (1 Bft) W-NW 292 5 min 13,3 C 31,1 C 0,0 km/h (0 Bft)
08.06.2016 12:46 26,0 C 22,6 C 22,4 C 31,3 C 31,3 C 5,3 C 48 % 61 % 100 % 1016,2 hPa 0,0 l/m 1,8 km/h (1 Bft) N 0 11 min 14,1 C 31,3 C 2,1 km/h (1 Bft)
08.06.2016 13:00 26,7 C 22,6 C 22,6 C 31,0 C 31,0 C 4,3 C 48 % 62 % 100 % 1016,2 hPa 0,0 l/m 2,9 km/h (1 Bft) SW 225 14 min 14,8 C 31,0 C 3,7 km/h (1 Bft)
08.06.2016 13:05 27,1 C 22,7 C 22,7 C 31,1 C 31,1 C 4,0 C 48 % 62 % 100 % 1016,2 hPa 0,0 l/m 1,9 km/h (1 Bft) W 270 5 min 15,1 C 31,1 C 3,5 km/h (1 Bft)
08.06.2016 13:10 27,1 C 22,7 C 22,7 C 31,3 C 31,3 C 4,2 C 48 % 62 % 100 % 1016,2 hPa 0,0 l/m 1,8 km/h (1 Bft) S 180 5 min 15,1 C 31,3 C 3,1 km/h (1 Bft)
08.06.2016 13:15 26,9 C 22,7 C 23,1 C 31,0 C 31,0 C 4,1 C 45 % 59 % 100 % 1016,2 hPa 0,0 l/m 2,6 km/h (1 Bft) NW 315 5 min 13,9 C 31,0 C 0,0 km/h (0 Bft)
08.06.2016 13:20 26,9 C 22,7 C 23,0 C 31,2 C 31,2 C 4,3 C 45 % 59 % 100 % 1016,2 hPa 0,0 l/m 1,9 km/h (1 Bft) S-SW 202 5 min 13,9 C 31,2 C 0,0 km/h (0 Bft)
08.06.2016 13:25 27,0 C 22,7 C 23,3 C 31,4 C 31,4 C 4,4 C 45 % 58 % 100 % 1016,1 hPa 0,0 l/m 1,3 km/h (1 Bft) NO 45 5 min 14,0 C 31,4 C 0,0 km/h (0 Bft)
08.06.2016 13:30 26,9 C 22,7 C 23,3 C 31,5 C 31,5 C 4,6 C 45 % 57 % 100 % 1016,1 hPa 0,0 l/m 1,9 km/h (1 Bft) S 180 5 min 13,9 C 31,5 C 3,5 km/h (1 Bft)
08.06.2016 13:35 26,9 C 22,8 C 23,5 C 31,3 C 31,3 C 4,4 C 45 % 57 % 100 % 1016,1 hPa 0,0 l/m 2,6 km/h (1 Bft) S 180 5 min 13,9 C 31,3 C 3,9 km/h (1 Bft)
08.06.2016 13:40 27,1 C 22,8 C 23,5 C 31,5 C 31,5 C 4,4 C 43 % 55 % 100 % 1016,1 hPa 0,0 l/m 2,9 km/h (1 Bft) N-NO 22 5 min 13,4 C 31,5 C 3,4 km/h (1 Bft)
08.06.2016 13:45 27,4 C 22,8 C 23,7 C 31,9 C 31,9 C 4,5 C 45 % 57 % 100 % 1015,7 hPa 0,0 l/m 1,6 km/h (1 Bft) S 180 5 min 14,4 C 31,9 C 3,2 km/h (1 Bft)
08.06.2016 13:50 27,9 C 22,8 C 23,9 C 32,0 C 32,0 C 4,1 C 44 % 58 % 100 % 1015,7 hPa 0,0 l/m 1,1 km/h (1 Bft) W-NW 292 5 min 14,5 C 32,0 C 2,9 km/h (1 Bft)
08.06.2016 13:55 28,0 C 22,8 C 24,2 C 32,3 C 32,3 C 4,3 C 43 % 57 % 100 % 1015,7 hPa 0,0 l/m 1,6 km/h (1 Bft) S-SW 202 5 min 14,2 C 32,3 C 3,5 km/h (1 Bft)
08.06.2016 14:00 28,1 C 22,8 C 24,2 C 32,2 C 32,2 C 4,1 C 42 % 57 % 100 % 1015,7 hPa 0,0 l/m 2,1 km/h (1 Bft) NW 315 5 min 14,0 C 32,2 C 2,7 km/h (1 Bft)
08.06.2016 14:05 28,0 C 22,9 C 24,3 C 32,5 C 32,5 C 4,5 C 41 % 55 % 100 % 1015,7 hPa 0,0 l/m 1,6 km/h (1 Bft) S-SO 157 5 min 13,5 C 32,5 C 1,6 km/h (1 Bft)
08.06.2016 14:10 28,1 C 22,9 C 24,4 C 32,7 C 32,7 C 4,6 C 42 % 55 % 100 % 1015,7 hPa 0,0 l/m 1,9 km/h (1 Bft) O-SO 112 5 min 14,0 C 32,7 C 5,0 km/h (1 Bft)
08.06.2016 14:15 28,3 C 22,9 C 24,4 C 32,3 C 32,3 C 4,0 C 41 % 55 % 100 % 1015,7 hPa 0,0 l/m 2,4 km/h (1 Bft) S-SW 202 5 min 13,8 C 32,3 C 3,2 km/h (1 Bft)
08.06.2016 14:20 28,2 C 22,9 C 24,5 C 32,1 C 32,1 C 3,9 C 41 % 54 % 100 % 1015,7 hPa 0,0 l/m 2,7 km/h (1 Bft) W-SW 247 5 min 13,7 C 32,1 C 2,1 km/h (1 Bft)
08.06.2016 14:25 28,4 C 22,9 C 24,4 C 32,0 C 32,0 C 3,6 C 42 % 55 % 95 % 1015,2 hPa 0,0 l/m 2,4 km/h (1 Bft) SW 225 5 min 14,2 C 32,0 C 2,9 km/h (1 Bft)
08.06.2016 14:35 28,7 C 22,9 C 24,9 C 32,7 C 32,7 C 4,0 C 43 % 55 % 100 % 1015,2 hPa 0,0 l/m 1,4 km/h (1 Bft) SW 225 10 min 14,9 C 32,7 C 5,3 km/h (1 Bft)
08.06.2016 14:40 28,9 C 22,9 C 25,1 C 32,7 C 32,7 C 3,8 C 42 % 56 % 100 % 1015,2 hPa 0,0 l/m 1,9 km/h (1 Bft) S 180 5 min 14,7 C 32,7 C 3,9 km/h (1 Bft)
08.06.2016 14:45 28,6 C 22,9 C 24,9 C 32,2 C 32,2 C 3,6 C 42 % 55 % 95 % 1014,8 hPa 0,0 l/m 2,9 km/h (1 Bft) W-NW 292 5 min 14,4 C 32,2 C 2,7 km/h (1 Bft)
08.06.2016 14:50 28,4 C 22,9 C 25,0 C 32,5 C 32,5 C 4,1 C 43 % 55 % 100 % 1014,8 hPa 0,0 l/m 1,9 km/h (1 Bft) SW 225 5 min 14,6 C 32,5 C 1,8 km/h (1 Bft)
08.06.2016 14:55 28,6 C 22,9 C 25,1 C 32,5 C 32,5 C 3,9 C 44 % 56 % 100 % 1014,8 hPa 0,0 l/m 1,6 km/h (1 Bft) SO 135 5 min 15,1 C 32,5 C 2,3 km/h (1 Bft)
08.06.2016 15:00 28,5 C 23,0 C 25,1 C 32,5 C 32,5 C 4,0 C 44 % 56 % 100 % 1014,8 hPa 0,0 l/m 1,9 km/h (1 Bft) W-SW 247 5 min 15,0 C 32,5 C 3,1 km/h (1 Bft)
08.06.2016 15:05 28,5 C 23,0 C 25,0 C 32,5 C 32,5 C 4,0 C 44 % 56 % 100 % 1014,8 hPa 0,0 l/m 1,9 km/h (1 Bft) SW 225 5 min 15,0 C 32,5 C 1,9 km/h (1 Bft)
08.06.2016 15:10 28,5 C 23,0 C 25,1 C 32,5 C 32,5 C 4,0 C 43 % 55 % 100 % 1014,8 hPa 0,0 l/m 2,4 km/h (1 Bft) W-SW 247 5 min 14,7 C 32,5 C 3,4 km/h (1 Bft)
08.06.2016 15:15 28,5 C 23,0 C 25,1 C 32,5 C 32,5 C 4,0 C 44 % 54 % 100 % 1014,8 hPa 0,0 l/m 1,9 km/h (1 Bft) W 270 5 min 15,0 C 32,5 C 2,7 km/h (1 Bft)
08.06.2016 15:20 28,5 C 23,0 C 25,3 C 32,9 C 32,9 C 4,4 C 44 % 56 % 100 % 1014,8 hPa 0,0 l/m 1,8 km/h (1 Bft) S-SW 202 5 min 15,0 C 32,9 C 2,6 km/h (1 Bft)
08.06.2016 15:25 28,5 C 23,0 C 25,3 C 33,2 C 33,2 C 4,7 C 45 % 56 % 100 % 1014,6 hPa 0,0 l/m 1,3 km/h (1 Bft) W 270 5 min 15,4 C 33,2 C 0,0 km/h (0 Bft)
08.06.2016 15:30 28,5 C 23,0 C 25,4 C 33,7 C 33,7 C 5,2 C 45 % 56 % 100 % 1014,6 hPa 0,0 l/m 1,3 km/h (1 Bft) W-NW 292 5 min 15,4 C 33,7 C 3,1 km/h (1 Bft)
08.06.2016 15:35 28,7 C 23,1 C 25,5 C 33,5 C 33,5 C 4,8 C 45 % 56 % 100 % 1014,6 hPa 0,0 l/m 1,3 km/h (1 Bft) S-SO 157 5 min 15,6 C 33,5 C 1,6 km/h (1 Bft)
08.06.2016 15:53 27,6 C 23,2 C 25,5 C 31,3 C 31,3 C 3,7 C 46 % 56 % 97 % 1014,4 hPa 0,0 l/m 2,4 km/h (1 Bft) N 0 18 min 14,9 C 31,3 C 5,3 km/h (1 Bft)
08.06.2016 16:05 27,3 C 23,2 C 25,8 C 31,0 C 31,0 C 3,7 C 48 % 58 % 97 % 1014,9 hPa 0,0 l/m 1,3 km/h (1 Bft) NW 315 12 min 15,3 C 31,0 C 0,0 km/h (0 Bft)
08.06.2016 16:10 27,3 C 23,3 C 26,0 C 31,5 C 31,5 C 4,2 C 47 % 55 % 100 % 1014,9 hPa 0,0 l/m 1,0 km/h (0 Bft) N 360 5 min 15,0 C 31,5 C 0,0 km/h (0 Bft)
08.06.2016 16:15 27,3 C 23,3 C 26,8 C 32,2 C 32,2 C 4,9 C 48 % 56 % 100 % 1014,9 hPa 0,0 l/m 1,3 km/h (1 Bft) O-SO 112 5 min 15,3 C 32,2 C 0,0 km/h (0 Bft)
08.06.2016 16:20 27,2 C 23,3 C 27,4 C 32,4 C 32,4 C 5,2 C 47 % 52 % 100 % 1014,9 hPa 0,0 l/m 1,9 km/h (1 Bft) NW 315 5 min 14,9 C 32,4 C 3,5 km/h (1 Bft)
08.06.2016 16:25 26,9 C 23,3 C 27,9 C 32,7 C 32,7 C 5,8 C 47 % 51 % 100 % 1014,2 hPa 0,0 l/m 2,3 km/h (1 Bft) W-NW 292 5 min 14,6 C 32,7 C 3,5 km/h (1 Bft)
08.06.2016 16:30 26,8 C 23,3 C 28,4 C 32,7 C 32,7 C 5,9 C 48 % 51 % 100 % 1014,2 hPa 0,0 l/m 2,3 km/h (1 Bft) S 180 5 min 14,9 C 32,7 C 3,2 km/h (1 Bft)
08.06.2016 16:35 26,9 C 23,3 C 29,1 C 33,1 C 33,1 C 6,2 C 47 % 50 % 100 % 1014,2 hPa 0,0 l/m 1,9 km/h (1 Bft) S 180 5 min 14,6 C 33,1 C 2,3 km/h (1 Bft)
08.06.2016 16:40 26,9 C 23,4 C 29,7 C 33,5 C 33,5 C 6,6 C 46 % 47 % 100 % 1014,2 hPa 0,0 l/m 1,3 km/h (1 Bft) N-NW 337 5 min 14,3 C 33,5 C 2,6 km/h (1 Bft)
08.06.2016 16:45 26,7 C 23,4 C 29,7 C 33,7 C 33,7 C 7,0 C 46 % 46 % 100 % 1014,6 hPa 0,0 l/m 1,8 km/h (1 Bft) S 180 5 min 14,1 C 33,7 C 3,9 km/h (1 Bft)
08.06.2016 16:50 26,7 C 23,4 C 30,0 C 33,7 C 33,7 C 7,0 C 47 % 45 % 100 % 1014,6 hPa 0,0 l/m 2,4 km/h (1 Bft) SW 225 5 min 14,4 C 33,7 C 6,4 km/h (2 Bft)
08.06.2016 16:55 26,7 C 23,4 C 29,8 C 33,5 C 33,5 C 6,8 C 47 % 45 % 100 % 1014,6 hPa 0,0 l/m 2,7 km/h (1 Bft) S-SW 202 5 min 14,4 C 33,5 C 1,6 km/h (1 Bft)
08.06.2016 17:00 26,6 C 23,4 C 29,5 C 33,5 C 33,5 C 6,9 C 47 % 44 % 100 % 1014,6 hPa 0,0 l/m 1,9 km/h (1 Bft) N-NO 22 5 min 14,3 C 33,5 C 1,8 km/h (1 Bft)
08.06.2016 17:05 26,5 C 23,4 C 28,6 C 32,6 C 32,6 C 6,1 C 47 % 46 % 100 % 1014,0 hPa 0,0 l/m 1,4 km/h (1 Bft) W 270 5 min 14,3 C 32,6 C 3,9 km/h (1 Bft)
08.06.2016 17:10 26,5 C 23,4 C 29,1 C 32,4 C 32,4 C 5,9 C 48 % 47 % 100 % 1014,0 hPa 0,0 l/m 2,3 km/h (1 Bft) NW 315 5 min 14,6 C 32,4 C 3,5 km/h (1 Bft)
08.06.2016 17:15 26,5 C 23,4 C 30,1 C 33,0 C 33,0 C 6,5 C 47 % 45 % 100 % 1014,0 hPa 0,0 l/m 2,7 km/h (1 Bft) S-SO 157 5 min 14,3 C 33,0 C 4,3 km/h (1 Bft)
08.06.2016 17:20 26,6 C 23,5 C 30,1 C 33,2 C 33,2 C 6,6 C 47 % 45 % 100 % 1014,0 hPa 0,0 l/m 2,9 km/h (1 Bft) W-NW 292 5 min 14,3 C 33,2 C 4,0 km/h (1 Bft)
08.06.2016 17:30 26,0 C 23,5 C 27,2 C 30,3 C 30,3 C 4,3 C 47 % 47 % 100 % 1013,8 hPa 0,0 l/m 2,7 km/h (1 Bft) W-SW 247 10 min 13,8 C 30,3 C 3,9 km/h (1 Bft)
08.06.2016 17:35 25,8 C 23,5 C 26,4 C 28,6 C 28,6 C 2,8 C 48 % 49 % 74 % 1013,8 hPa 0,0 l/m 2,1 km/h (1 Bft) S 180 0 min 13,9 C 28,6 C 1,6 km/h (1 Bft)
08.06.2016 17:40 25,7 C 23,5 C 25,9 C 27,9 C 27,9 C 2,2 C 49 % 51 % 58 % 1013,8 hPa 0,0 l/m 1,1 km/h (1 Bft) W-SW 247 0 min 14,2 C 27,9 C 2,6 km/h (1 Bft)
08.06.2016 17:45 25,5 C 23,5 C 25,7 C 27,4 C 27,4 C 1,9 C 49 % 52 % 50 % 1013,7 hPa 0,0 l/m 1,4 km/h (1 Bft) S 180 0 min 14,0 C 27,4 C 4,2 km/h (1 Bft)
08.06.2016 17:50 25,5 C 23,5 C 26,8 C 28,3 C 28,3 C 2,8 C 49 % 52 % 74 % 1013,7 hPa 0,0 l/m 2,1 km/h (1 Bft) W 270 0 min 14,0 C 28,3 C 3,4 km/h (1 Bft)
08.06.2016 17:55 25,7 C 23,5 C 27,3 C 30,5 C 30,5 C 4,8 C 50 % 50 % 100 % 1013,7 hPa 0,0 l/m 2,1 km/h (1 Bft) S 180 5 min 14,5 C 30,5 C 3,5 km/h (1 Bft)
08.06.2016 18:00 26,0 C 23,5 C 26,9 C 31,9 C 31,9 C 5,9 C 50 % 51 % 100 % 1013,7 hPa 0,0 l/m 2,1 km/h (1 Bft) W-NW 292 5 min 14,8 C 31,9 C 3,1 km/h (1 Bft)
08.06.2016 18:05 26,1 C 23,6 C 26,7 C 32,7 C 32,7 C 6,6 C 50 % 51 % 100 % 1013,7 hPa 0,0 l/m 2,4 km/h (1 Bft) N 360 5 min 14,8 C 32,7 C 4,2 km/h (1 Bft)
08.06.2016 18:10 26,1 C 23,6 C 26,4 C 32,4 C 32,4 C 6,3 C 47 % 49 % 100 % 1013,7 hPa 0,0 l/m 3,7 km/h (1 Bft) S 180 5 min 13,9 C 32,4 C 5,3 km/h (1 Bft)
08.06.2016 18:15 25,7 C 23,6 C 26,0 C 31,6 C 31,6 C 5,9 C 49 % 50 % 100 % 1013,7 hPa 0,0 l/m 4,2 km/h (1 Bft) S-SW 202 5 min 14,2 C 31,6 C 5,3 km/h (1 Bft)
08.06.2016 18:20 25,6 C 23,6 C 25,9 C 31,3 C 31,3 C 5,7 C 51 % 52 % 100 % 1013,7 hPa 0,0 l/m 3,9 km/h (1 Bft) NW 315 5 min 14,7 C 31,3 C 11,6 km/h (2 Bft)
08.06.2016 18:25 25,4 C 23,6 C 25,5 C 30,6 C 30,6 C 5,2 C 52 % 53 % 100 % 1013,7 hPa 0,0 l/m 3,9 km/h (1 Bft) SW 225 5 min 14,8 C 30,6 C 5,3 km/h (1 Bft)
08.06.2016 18:30 25,2 C 23,6 C 25,2 C 30,2 C 30,2 C 5,0 C 53 % 55 % 100 % 1013,7 hPa 0,0 l/m 3,2 km/h (1 Bft) N-NW 337 5 min 14,9 C 30,2 C 2,3 km/h (1 Bft)
08.06.2016 18:35 25,0 C 23,6 C 24,9 C 29,4 C 29,4 C 4,4 C 53 % 55 % 100 % 1013,7 hPa 0,0 l/m 3,1 km/h (1 Bft) W 270 5 min 14,7 C 29,4 C 4,3 km/h (1 Bft)
08.06.2016 18:57 24,3 C 23,6 C 24,1 C 28,8 C 28,8 C 4,5 C 55 % 57 % 100 % 1013,7 hPa 0,0 l/m 1,4 km/h (1 Bft) N 0 22 min 14,7 C 28,8 C 3,2 km/h (1 Bft)
08.06.2016 19:10 24,2 C 23,6 C 23,7 C 28,0 C 28,0 C 3,8 C 55 % 58 % 100 % 1013,6 hPa 0,0 l/m 1,9 km/h (1 Bft) SW 225 13 min 14,6 C 28,0 C 5,1 km/h (1 Bft)
08.06.2016 19:15 24,1 C 23,6 C 23,6 C 27,6 C 27,6 C 3,5 C 56 % 58 % 92 % 1013,6 hPa 0,0 l/m 2,3 km/h (1 Bft) O-SO 112 5 min 14,8 C 27,6 C 2,1 km/h (1 Bft)
08.06.2016 19:20 24,1 C 23,6 C 23,5 C 27,6 C 27,6 C 3,5 C 56 % 60 % 92 % 1013,6 hPa 0,0 l/m 1,4 km/h (1 Bft) NW 315 5 min 14,8 C 27,6 C 2,1 km/h (1 Bft)
08.06.2016 19:25 23,9 C 23,6 C 23,2 C 27,0 C 27,0 C 3,1 C 56 % 60 % 82 % 1013,8 hPa 0,0 l/m 0,8 km/h (0 Bft) W 270 5 min 14,6 C 27,0 C 2,3 km/h (1 Bft)
08.06.2016 19:30 23,9 C 23,6 C 23,1 C 26,9 C 26,9 C 3,0 C 57 % 61 % 79 % 1013,8 hPa 0,0 l/m 1,3 km/h (1 Bft) NW 315 5 min 14,9 C 26,9 C 2,9 km/h (1 Bft)
08.06.2016 19:35 23,9 C 23,7 C 23,0 C 26,5 C 26,5 C 2,6 C 57 % 61 % 68 % 1013,8 hPa 0,0 l/m 1,4 km/h (1 Bft) N-NW 337 5 min 14,9 C 26,5 C 1,9 km/h (1 Bft)
08.06.2016 19:40 23,7 C 23,7 C 22,9 C 26,0 C 26,0 C 2,3 C 57 % 62 % 61 % 1013,8 hPa 0,0 l/m 1,6 km/h (1 Bft) O-SO 112 5 min 14,7 C 26,0 C 2,4 km/h (1 Bft)
08.06.2016 19:45 23,6 C 23,7 C 22,8 C 25,5 C 25,5 C 1,9 C 58 % 62 % 50 % 1013,9 hPa 0,0 l/m 1,6 km/h (1 Bft) W 270 0 min 14,8 C 25,5 C 2,4 km/h (1 Bft)
08.06.2016 19:50 23,5 C 23,7 C 22,8 C 25,1 C 25,1 C 1,6 C 58 % 63 % 42 % 1013,9 hPa 0,0 l/m 2,1 km/h (1 Bft) NW 315 0 min 14,7 C 25,1 C 2,9 km/h (1 Bft)
08.06.2016 20:00 23,2 C 23,7 C 22,7 C 24,9 C 24,9 C 1,7 C 56 % 59 % 45 % 1013,9 hPa 0,0 l/m 1,8 km/h (1 Bft) W 270 10 min 13,9 C 24,9 C 1,8 km/h (1 Bft)
08.06.2016 20:05 23,1 C 23,7 C 22,4 C 24,3 C 24,3 C 1,2 C 54 % 58 % 32 % 1013,9 hPa 0,0 l/m 1,6 km/h (1 Bft) W 270 0 min 13,3 C 24,3 C 6,4 km/h (2 Bft)
08.06.2016 20:10 22,9 C 23,8 C 22,3 C 23,8 C 23,8 C 0,9 C 54 % 57 % 24 % 1013,9 hPa 0,0 l/m 2,1 km/h (1 Bft) W-NW 292 0 min 13,1 C 23,8 C 3,9 km/h (1 Bft)
08.06.2016 20:15 22,6 C 23,8 C 22,0 C 23,0 C 23,0 C 0,4 C 53 % 57 % 11 % 1013,9 hPa 0,0 l/m 1,9 km/h (1 Bft) SO 135 0 min 12,5 C 23,0 C 0,0 km/h (0 Bft)
08.06.2016 20:20 22,5 C 23,8 C 21,9 C 22,6 C 22,6 C 0,1 C 53 % 57 % 3 % 1013,9 hPa 0,0 l/m 1,1 km/h (1 Bft) S-SW 202 0 min 12,4 C 22,6 C 0,0 km/h (0 Bft)
08.06.2016 20:25 22,3 C 23,8 C 21,7 C 22,2 C 22,1 C 0,0 C 53 % 58 % 0 % 1013,6 hPa 0,0 l/m 0,3 km/h (0 Bft) S 180 0 min 12,2 C 22,1 C 1,6 km/h (1 Bft)
08.06.2016 20:30 22,3 C 23,8 C 21,7 C 22,1 C 21,8 C 0,0 C 54 % 58 % 0 % 1013,6 hPa 0,0 l/m 0,6 km/h (0 Bft) S 180 0 min 12,5 C 21,8 C 2,1 km/h (1 Bft)
08.06.2016 20:35 22,0 C 23,8 C 21,4 C 21,8 C 21,5 C 0,0 C 54 % 59 % 0 % 1013,6 hPa 0,0 l/m 1,4 km/h (1 Bft) W 270 0 min 12,3 C 21,5 C 4,0 km/h (1 Bft)
08.06.2016 20:40 21,9 C 23,8 C 21,3 C 21,7 C 21,2 C 0,0 C 54 % 59 % 0 % 1013,6 hPa 0,0 l/m 1,6 km/h (1 Bft) S 180 0 min 12,2 C 21,2 C 2,6 km/h (1 Bft)
08.06.2016 20:45 21,6 C 23,8 C 21,1 C 21,4 C 20,9 C 0,0 C 53 % 58 % 0 % 1013,6 hPa 0,0 l/m 1,8 km/h (1 Bft) NO 45 0 min 11,6 C 20,9 C 2,4 km/h (1 Bft)
08.06.2016 20:50 21,5 C 23,8 C 21,0 C 21,2 C 20,7 C 0,0 C 54 % 58 % 0 % 1013,6 hPa 0,0 l/m 1,4 km/h (1 Bft) W-SW 247 0 min 11,8 C 20,7 C 0,0 km/h (0 Bft)
08.06.2016 21:00 21,2 C 23,8 C 20,7 C 20,9 C 20,3 C 0,0 C 54 % 58 % 0 % 1013,6 hPa 0,0 l/m 1,8 km/h (1 Bft) SO 135 0 min 11,5 C 20,3 C 2,7 km/h (1 Bft)
08.06.2016 21:05 21,1 C 23,8 C 20,5 C 20,7 C 20,0 C 0,0 C 54 % 58 % 0 % 1013,8 hPa 0,0 l/m 2,1 km/h (1 Bft) S-SW 202 0 min 11,4 C 20,0 C 2,7 km/h (1 Bft)
08.06.2016 21:10 20,8 C 23,8 C 20,5 C 20,5 C 19,8 C 0,0 C 54 % 59 % 0 % 1013,8 hPa 0,0 l/m 2,3 km/h (1 Bft) SW 225 0 min 11,1 C 19,8 C 0,0 km/h (0 Bft)
08.06.2016 21:15 20,7 C 23,8 C 20,3 C 20,3 C 19,5 C 0,0 C 55 % 60 % 0 % 1013,8 hPa 0,0 l/m 1,4 km/h (1 Bft) S 180 0 min 11,3 C 19,5 C 1,6 km/h (1 Bft)
08.06.2016 21:20 20,4 C 23,8 C 20,1 C 20,0 C 19,3 C 0,0 C 55 % 60 % 0 % 1013,8 hPa 0,0 l/m 1,0 km/h (0 Bft) N-NW 337 0 min 11,1 C 19,3 C 0,0 km/h (0 Bft)
08.06.2016 21:25 20,3 C 23,8 C 19,8 C 19,8 C 18,9 C 0,0 C 55 % 61 % 0 % 1014,0 hPa 0,0 l/m 0,5 km/h (0 Bft) W-NW 292 0 min 11,0 C 18,9 C 0,0 km/h (0 Bft)
08.06.2016 21:30 20,0 C 23,7 C 19,7 C 19,6 C 18,7 C 0,0 C 56 % 61 % 0 % 1014,0 hPa 0,0 l/m 0,5 km/h (0 Bft) W 270 0 min 11,0 C 18,7 C 3,1 km/h (1 Bft)
08.06.2016 21:35 19,8 C 23,7 C 19,6 C 19,4 C 18,5 C 0,0 C 57 % 62 % 0 % 1014,0 hPa 0,0 l/m 1,1 km/h (1 Bft) S 180 0 min 11,0 C 18,5 C 0,0 km/h (0 Bft)
08.06.2016 21:47 19,6 C 23,8 C 19,2 C 19,1 C 18,1 C 0,0 C 59 % 63 % 0 % 1014,4 hPa 0,0 l/m 1,0 km/h (0 Bft) N 0 0 min 11,4 C 18,1 C 2,4 km/h (1 Bft)
08.06.2016 22:00 19,2 C 23,8 C 18,9 C 18,7 C 17,7 C 0,0 C 61 % 64 % 0 % 1014,4 hPa 0,0 l/m 1,3 km/h (1 Bft) N-NW 337 0 min 11,5 C 17,7 C 2,4 km/h (1 Bft)
08.06.2016 22:05 19,0 C 23,8 C 18,8 C 18,6 C 17,7 C 0,0 C 61 % 64 % 0 % 1014,2 hPa 0,0 l/m 2,3 km/h (1 Bft) W 270 0 min 11,3 C 17,7 C 2,6 km/h (1 Bft)
08.06.2016 22:10 19,0 C 23,8 C 18,7 C 18,6 C 17,7 C 0,0 C 61 % 65 % 0 % 1014,2 hPa 0,0 l/m 2,3 km/h (1 Bft) W-SW 247 0 min 11,3 C 17,7 C 4,0 km/h (1 Bft)
08.06.2016 22:15 18,8 C 23,8 C 18,6 C 18,4 C 17,5 C 0,0 C 61 % 65 % 0 % 1014,2 hPa 0,0 l/m 1,9 km/h (1 Bft) S 180 0 min 11,1 C 17,5 C 1,8 km/h (1 Bft)
08.06.2016 22:20 18,7 C 23,8 C 18,5 C 18,3 C 17,5 C 0,0 C 61 % 65 % 0 % 1014,2 hPa 0,0 l/m 1,9 km/h (1 Bft) SO 135 0 min 11,0 C 17,5 C 3,1 km/h (1 Bft)
08.06.2016 22:25 18,7 C 23,8 C 18,4 C 18,3 C 17,4 C 0,0 C 62 % 66 % 0 % 1014,8 hPa 0,0 l/m 1,3 km/h (1 Bft) NW 315 0 min 11,3 C 17,4 C 0,0 km/h (0 Bft)
08.06.2016 22:30 18,5 C 23,8 C 18,3 C 18,1 C 17,3 C 0,0 C 62 % 66 % 0 % 1014,8 hPa 0,0 l/m 1,6 km/h (1 Bft) SW 225 0 min 11,1 C 17,3 C 0,0 km/h (0 Bft)
08.06.2016 22:35 18,4 C 23,8 C 18,2 C 18,0 C 17,3 C 0,0 C 63 % 66 % 0 % 1014,8 hPa 0,0 l/m 2,1 km/h (1 Bft) S-SW 202 0 min 11,2 C 17,3 C 1,6 km/h (1 Bft)
08.06.2016 22:40 18,3 C 23,8 C 18,1 C 17,9 C 17,2 C 0,0 C 64 % 67 % 0 % 1014,8 hPa 0,0 l/m 2,1 km/h (1 Bft) SO 135 0 min 11,4 C 17,2 C 0,0 km/h (0 Bft)
08.06.2016 22:45 18,1 C 23,8 C 18,0 C 17,8 C 17,1 C 0,0 C 65 % 68 % 0 % 1014,8 hPa 0,0 l/m 2,1 km/h (1 Bft) S-SO 157 0 min 11,4 C 17,1 C 4,2 km/h (1 Bft)
08.06.2016 22:50 18,1 C 23,8 C 17,9 C 17,8 C 17,1 C 0,0 C 65 % 68 % 0 % 1014,8 hPa 0,0 l/m 1,6 km/h (1 Bft) S-SW 202 0 min 11,4 C 17,1 C 1,8 km/h (1 Bft)
08.06.2016 22:55 18,0 C 23,8 C 17,9 C 17,7 C 17,0 C 0,0 C 66 % 69 % 0 % 1014,8 hPa 0,0 l/m 1,4 km/h (1 Bft) SW 225 0 min 11,6 C 17,0 C 0,0 km/h (0 Bft)
08.06.2016 23:00 17,9 C 23,7 C 17,7 C 17,6 C 17,0 C 0,0 C 66 % 69 % 0 % 1014,8 hPa 0,0 l/m 1,6 km/h (1 Bft) W-SW 247 0 min 11,5 C 17,0 C 4,0 km/h (1 Bft)
08.06.2016 23:05 17,7 C 23,7 C 17,6 C 17,4 C 16,8 C 0,0 C 66 % 70 % 0 % 1014,9 hPa 0,0 l/m 1,3 km/h (1 Bft) S-SW 202 0 min 11,3 C 16,8 C 1,9 km/h (1 Bft)
08.06.2016 23:10 17,6 C 23,7 C 17,5 C 17,3 C 16,7 C 0,0 C 67 % 70 % 0 % 1014,9 hPa 0,0 l/m 1,1 km/h (1 Bft) W-SW 247 0 min 11,4 C 16,7 C 3,1 km/h (1 Bft)
08.06.2016 23:15 17,5 C 23,7 C 17,5 C 17,2 C 16,6 C 0,0 C 68 % 71 % 0 % 1014,9 hPa 0,0 l/m 0,8 km/h (0 Bft) N-NO 22 0 min 11,5 C 16,6 C 0,0 km/h (0 Bft)
08.06.2016 23:20 17,5 C 23,7 C 17,3 C 17,2 C 16,6 C 0,0 C 69 % 71 % 0 % 1014,9 hPa 0,0 l/m 1,3 km/h (1 Bft) W-SW 247 0 min 11,7 C 16,6 C 3,4 km/h (1 Bft)
08.06.2016 23:25 17,3 C 23,7 C 17,2 C 17,1 C 16,6 C 0,0 C 69 % 72 % 0 % 1015,2 hPa 0,0 l/m 1,8 km/h (1 Bft) SW 225 0 min 11,6 C 16,6 C 2,1 km/h (1 Bft)
08.06.2016 23:30 17,2 C 23,7 C 17,2 C 17,0 C 16,5 C 0,0 C 70 % 72 % 0 % 1015,2 hPa 0,0 l/m 2,1 km/h (1 Bft) SW 225 0 min 11,7 C 16,5 C 2,3 km/h (1 Bft)
08.06.2016 23:35 17,2 C 23,8 C 17,1 C 16,9 C 16,4 C 0,0 C 71 % 73 % 0 % 1015,2 hPa 0,0 l/m 1,8 km/h (1 Bft) O 90 0 min 11,9 C 16,4 C 2,7 km/h (1 Bft)
08.06.2016 23:40 17,1 C 23,8 C 17,1 C 16,8 C 16,3 C 0,0 C 71 % 73 % 0 % 1015,2 hPa 0,0 l/m 1,9 km/h (1 Bft) S-SO 157 0 min 11,8 C 16,3 C 2,6 km/h (1 Bft)
08.06.2016 23:45 16,9 C 23,8 C 16,8 C 16,6 C 15,9 C 0,0 C 71 % 73 % 0 % 1015,4 hPa 0,0 l/m 1,6 km/h (1 Bft) S 180 0 min 11,6 C 15,9 C 2,7 km/h (1 Bft)
08.06.2016 23:50 16,9 C 23,8 C 16,9 C 16,5 C 15,8 C 0,0 C 72 % 74 % 0 % 1015,4 hPa 0,0 l/m 1,8 km/h (1 Bft) W-SW 247 0 min 11,8 C 15,8 C 3,2 km/h (1 Bft)
08.06.2016 23:55 16,6 C 23,8 C 16,6 C 16,2 C 15,5 C 0,0 C 72 % 74 % 0 % 1015,4 hPa 0,0 l/m 1,8 km/h (1 Bft) SW 225 0 min 11,5 C 15,5 C 2,4 km/h (1 Bft)
_ Min-Zeit 05:32 09:22 05:02 04:57 04:57 00:00 14:05 17:00 00:00 19:10 - 00:00 - - - 05:32 04:57 00:00
Minimum _ 8,5 C 22,3 C 10,4 C 8,7 C 8,7 C 0,0 C 41 % 44 % 0 % 1013,6 hPa - 0,0 km/h (0 Bft) - - - 6,6 C 8,7 C 0,0 km/h (0 Bft)
_ Max-Zeit 14:40 20:10 17:15 15:30 15:30 08:07 07:12 06:47 07:07 00:54 00:00 18:15 - - 18:57 09:07 15:30 18:20
Maximum _ 28,9 C 23,8 C 30,1 C 33,7 C 33,7 C 12,6 C 92 % 90 % 100 % 1019,8 hPa 0,0 l/m 4,2 km/h
S-SW (1 Bft)
- - 22 min 16,1 C 33,7 C 11,6 km/h
NW (2 Bft)
Durchschnitt _ 18,9 C 23,2 C 18,5 C 22,3 C 22,2 C 3,5 C 66 % 72 % 54 % 1016,4 hPa #0,0 l/m 1,1 km/h (1 Bft) S - #12:28 h 11,8 C 22,2 C 1,7 km/h (1 Bft)
2016 www.wetterstation-wechselburg.de